Location: Tr�vern
(48.0333°N, 4.6000°W)
Time: 01:15:46
(UTC+00:00)

Cosmos 2016 Rocket - Pass Details

Date: 14 July 2020
Orbit: 948 x 999 km, 83.0° (Epoch: 11 August)

Event Time Altitude Azimuth Distance (km) Brightness Sun altitude
Exits shadow 01:53:41 23° 172° (S) 1,918 5.0 -17.5°
Maximum altitude 01:57:39 69° 94° (E) 1,032 4.2 -17.3°
Drops below altitude 10° 02:03:51 10° 13° (NNE) 2,731 7.6 -16.9°
Sets 02:06:24 0° 11° (NNE) 3,691 8.6 -16.7°
